DAL681 KSLC-KDEN

Flight info

Callsign DAL681
Flight time 0h 59m
Altitude 35000
Route RUGGD3 PERTY KAMPR LONGZ4
Aircraft A320/M-SDE3FGHIRWY/LB1

Departure

Time 2026-05-06 10:04
Airport Salt Lake City International Airport (KSLC)

Arrival

Time 2026-05-06 11:03
Airport Denver International Airport (KDEN)
Time Latitude Longitude Altitude Speed Heading
2026-05-06 09:37 40.78649 -111.98205 4236 ft 0 kts 175°
2026-05-06 09:54 40.78656 -111.98206 4236 ft 4 kts 175°
2026-05-06 09:54 40.78679 -111.98209 4235 ft 4 kts 174°
2026-05-06 09:54 40.78704 -111.98217 4235 ft 4 kts 141°
2026-05-06 09:54 40.78715 -111.98241 4234 ft 2 kts 88°
2026-05-06 09:55 40.78715 -111.98243 4234 ft 0 kts 87°
2026-05-06 09:56 40.78716 -111.98235 4232 ft 3 kts 86°
2026-05-06 09:56 40.78718 -111.98200 4234 ft 5 kts 85°
2026-05-06 09:57 40.78721 -111.98153 4235 ft 6 kts 85°
2026-05-06 09:57 40.78725 -111.98090 4235 ft 7 kts 84°
2026-05-06 09:57 40.78730 -111.98025 4236 ft 7 kts 84°
2026-05-06 09:57 40.78729 -111.97958 4237 ft 8 kts 91°
2026-05-06 09:58 40.78732 -111.97880 4237 ft 9 kts 87°
2026-05-06 09:58 40.78735 -111.97785 4238 ft 12 kts 87°
2026-05-06 09:58 40.78761 -111.97689 4238 ft 7 kts 37°
2026-05-06 09:58 40.78819 -111.97686 4238 ft 9 kts 356°
2026-05-06 09:59 40.78886 -111.97695 4239 ft 10 kts 353°
2026-05-06 09:59 40.78963 -111.97706 4240 ft 12 kts 355°
2026-05-06 09:59 40.79058 -111.97716 4239 ft 16 kts 355°
2026-05-06 09:59 40.79188 -111.97732 4235 ft 22 kts 354°
2026-05-06 10:00 40.79344 -111.97751 4234 ft 23 kts 357°
2026-05-06 10:00 40.79510 -111.97768 4231 ft 25 kts 355°
2026-05-06 10:00 40.79684 -111.97790 4233 ft 25 kts 355°
2026-05-06 10:00 40.79853 -111.97808 4235 ft 24 kts 355°
2026-05-06 10:01 40.80015 -111.97824 4239 ft 23 kts 356°
2026-05-06 10:01 40.80170 -111.97843 4239 ft 22 kts 354°
2026-05-06 10:01 40.80323 -111.97863 4243 ft 22 kts 354°
2026-05-06 10:01 40.80480 -111.97879 4239 ft 23 kts 358°
2026-05-06 10:02 40.80604 -111.97878 4238 ft 11 kts 13°
2026-05-06 10:02 40.80634 -111.97816 4237 ft 6 kts 76°
2026-05-06 10:02 40.80639 -111.97758 4236 ft 7 kts 88°
2026-05-06 10:02 40.80622 -111.97708 4236 ft 5 kts 132°
2026-05-06 10:03 40.80601 -111.97688 4237 ft 3 kts 149°
2026-05-06 10:03 40.80572 -111.97675 4239 ft 7 kts 166°
2026-05-06 10:03 40.80470 -111.97661 4242 ft 37 kts 174°
2026-05-06 10:03 40.79930 -111.97597 4237 ft 116 kts 174°
2026-05-06 10:04 40.78910 -111.97463 4269 ft 173 kts 173°
2026-05-06 10:04 40.77678 -111.97378 4944 ft 181 kts 176°
2026-05-06 10:04 40.76359 -111.97339 5213 ft 203 kts 175°
2026-05-06 10:04 40.74882 -111.97230 5573 ft 216 kts 167°
2026-05-06 10:05 40.73437 -111.96466 5915 ft 236 kts 141°
2026-05-06 10:05 40.72356 -111.94735 6272 ft 256 kts 113°
2026-05-06 10:05 40.72063 -111.92402 6872 ft 265 kts 82°
2026-05-06 10:05 40.72778 -111.90199 7686 ft 265 kts 48°
2026-05-06 10:06 40.74278 -111.88771 8350 ft 275 kts 24°
2026-05-06 10:06 40.76168 -111.88050 8872 ft 287 kts 10°
2026-05-06 10:06 40.77478 -111.87808 9454 ft 288 kts
2026-05-06 10:06 40.79485 -111.87560 10208 ft 292 kts
2026-05-06 10:07 40.82223 -111.87256 10868 ft 311 kts
2026-05-06 10:07 40.84463 -111.86921 11005 ft 336 kts
2026-05-06 10:07 40.86776 -111.86091 11395 ft 352 kts 25°
2026-05-06 10:07 40.88661 -111.84057 12283 ft 355 kts 51°
2026-05-06 10:08 40.89493 -111.82136 12800 ft 361 kts 66°
2026-05-06 10:08 40.89987 -111.78900 13485 ft 370 kts 85°
2026-05-06 10:08 40.90051 -111.75482 14148 ft 374 kts 85°
2026-05-06 10:08 40.90128 -111.72024 14756 ft 378 kts 85°
2026-05-06 10:09 40.90217 -111.68536 15363 ft 382 kts 84°
2026-05-06 10:09 40.90315 -111.65005 15920 ft 387 kts 84°
2026-05-06 10:09 40.90416 -111.61440 16517 ft 391 kts 84°
2026-05-06 10:09 40.90515 -111.57828 17060 ft 394 kts 84°
2026-05-06 10:10 40.90611 -111.54179 17582 ft 399 kts 83°
2026-05-06 10:10 40.90705 -111.50494 18089 ft 403 kts 83°
2026-05-06 10:10 40.90796 -111.46771 18632 ft 406 kts 83°
2026-05-06 10:10 40.90885 -111.43019 19175 ft 410 kts 83°
2026-05-06 10:11 40.90853 -111.39282 19719 ft 416 kts 91°
2026-05-06 10:11 40.90434 -111.35465 20264 ft 421 kts 94°
2026-05-06 10:11 40.89977 -111.31630 20809 ft 424 kts 94°
2026-05-06 10:11 40.89519 -111.27769 21348 ft 427 kts 94°
2026-05-06 10:12 40.89057 -111.23886 21855 ft 429 kts 94°
2026-05-06 10:12 40.88592 -111.19978 22336 ft 431 kts 94°
2026-05-06 10:12 40.88125 -111.16053 22806 ft 434 kts 94°
2026-05-06 10:12 40.87654 -111.12107 23268 ft 436 kts 94°
2026-05-06 10:13 40.87179 -111.08134 23731 ft 439 kts 94°
2026-05-06 10:13 40.86701 -111.04141 24143 ft 442 kts 94°
2026-05-06 10:13 40.86218 -111.00121 24567 ft 444 kts 94°
2026-05-06 10:13 40.85730 -110.96083 24950 ft 446 kts 94°
2026-05-06 10:14 40.85237 -110.92028 25304 ft 448 kts 94°
2026-05-06 10:14 40.84742 -110.87958 25663 ft 450 kts 94°
2026-05-06 10:14 40.84243 -110.83858 25988 ft 454 kts 94°
2026-05-06 10:14 40.83744 -110.79782 26333 ft 456 kts 94°
2026-05-06 10:15 40.83236 -110.75640 26650 ft 458 kts 94°
2026-05-06 10:15 40.82729 -110.71479 26972 ft 461 kts 94°
2026-05-06 10:15 40.82218 -110.67296 27273 ft 463 kts 94°
2026-05-06 10:15 40.81702 -110.63087 27581 ft 465 kts 94°
2026-05-06 10:16 40.81181 -110.58864 27863 ft 468 kts 94°
2026-05-06 10:16 40.80650 -110.54613 28149 ft 471 kts 94°
2026-05-06 10:16 40.80112 -110.50346 28401 ft 473 kts 94°
2026-05-06 10:16 40.79570 -110.46048 28670 ft 476 kts 94°
2026-05-06 10:17 40.79027 -110.41736 28930 ft 478 kts 94°
2026-05-06 10:17 40.78481 -110.37400 29147 ft 480 kts 94°
2026-05-06 10:17 40.77930 -110.33043 29353 ft 483 kts 94°
2026-05-06 10:17 40.77373 -110.28669 29554 ft 485 kts 94°
2026-05-06 10:18 40.76811 -110.24270 29794 ft 487 kts 94°
2026-05-06 10:18 40.76244 -110.19852 30018 ft 489 kts 94°
2026-05-06 10:18 40.75674 -110.15425 30211 ft 491 kts 94°
2026-05-06 10:18 40.75100 -110.10976 30470 ft 491 kts 94°
2026-05-06 10:19 40.74531 -110.06594 30746 ft 491 kts 94°
2026-05-06 10:19 40.74003 -110.02147 31004 ft 489 kts 92°
2026-05-06 10:19 40.73614 -109.97709 31267 ft 487 kts 90°
2026-05-06 10:19 40.73335 -109.93258 31470 ft 487 kts 89°
2026-05-06 10:20 40.73115 -109.88793 31662 ft 489 kts 89°
2026-05-06 10:20 40.72900 -109.84315 31912 ft 490 kts 89°
2026-05-06 10:20 40.72659 -109.79833 32190 ft 490 kts 90°
2026-05-06 10:20 40.72382 -109.75363 32468 ft 490 kts 91°
2026-05-06 10:21 40.72075 -109.70899 32736 ft 489 kts 91°
2026-05-06 10:21 40.71748 -109.66433 32995 ft 489 kts 91°
2026-05-06 10:21 40.71417 -109.61971 33235 ft 489 kts 91°
2026-05-06 10:21 40.71093 -109.57515 33461 ft 489 kts 91°
2026-05-06 10:22 40.70778 -109.53054 33711 ft 488 kts 91°
2026-05-06 10:22 40.70468 -109.48597 33972 ft 488 kts 91°
2026-05-06 10:22 40.70156 -109.44152 34230 ft 487 kts 92°
2026-05-06 10:22 40.69839 -109.39702 34466 ft 487 kts 92°
2026-05-06 10:23 40.69520 -109.35259 34695 ft 487 kts 92°
2026-05-06 10:23 40.69201 -109.30814 34926 ft 487 kts 92°
2026-05-06 10:23 40.68882 -109.26360 35064 ft 488 kts 92°
2026-05-06 10:23 40.68568 -109.21974 35098 ft 488 kts 92°
2026-05-06 10:24 40.67911 -109.13081 35086 ft 488 kts 93°
2026-05-06 10:24 40.67242 -109.04183 35094 ft 489 kts 93°
2026-05-06 10:25 40.66636 -108.95259 35084 ft 489 kts 92°
2026-05-06 10:25 40.66094 -108.86322 35083 ft 489 kts 92°
2026-05-06 10:26 40.65538 -108.77380 35076 ft 490 kts 93°
2026-05-06 10:26 40.64955 -108.68432 35068 ft 491 kts 93°
2026-05-06 10:27 40.64347 -108.59471 35059 ft 492 kts 94°
2026-05-06 10:27 40.63728 -108.50495 35053 ft 492 kts 94°
2026-05-06 10:28 40.63119 -108.41509 35048 ft 493 kts 94°
2026-05-06 10:28 40.62502 -108.32496 35042 ft 494 kts 94°
2026-05-06 10:29 40.61879 -108.23542 35041 ft 495 kts 95°
2026-05-06 10:29 40.61245 -108.14523 35039 ft 496 kts 95°
2026-05-06 10:30 40.60603 -108.05481 35038 ft 496 kts 95°
2026-05-06 10:30 40.59944 -107.96427 35041 ft 497 kts 95°
2026-05-06 10:31 40.59284 -107.87361 35032 ft 498 kts 96°
2026-05-06 10:31 40.58613 -107.78264 35030 ft 499 kts 96°
2026-05-06 10:32 40.57934 -107.69174 35031 ft 499 kts 96°
2026-05-06 10:32 40.57254 -107.60089 35026 ft 499 kts 96°
2026-05-06 10:33 40.56566 -107.51013 35027 ft 499 kts 96°
2026-05-06 10:33 40.55880 -107.41976 35030 ft 499 kts 96°
2026-05-06 10:34 40.55183 -107.32900 35034 ft 499 kts 96°
2026-05-06 10:34 40.54476 -107.23808 35039 ft 499 kts 96°
2026-05-06 10:35 40.53760 -107.14734 35044 ft 498 kts 96°
2026-05-06 10:35 40.53049 -107.05677 35039 ft 498 kts 96°
2026-05-06 10:36 40.52335 -106.96643 35025 ft 497 kts 97°
2026-05-06 10:36 40.51605 -106.87608 34877 ft 498 kts 97°
2026-05-06 10:37 40.51233 -106.83077 34627 ft 498 kts 97°
2026-05-06 10:37 40.50858 -106.78553 34378 ft 498 kts 97°
2026-05-06 10:37 40.50480 -106.74026 34127 ft 498 kts 97°
2026-05-06 10:37 40.50105 -106.69553 33880 ft 498 kts 97°
2026-05-06 10:38 40.49725 -106.65033 33632 ft 498 kts 97°
2026-05-06 10:38 40.49346 -106.60509 33381 ft 498 kts 97°
2026-05-06 10:38 40.48968 -106.55978 33120 ft 499 kts 97°
2026-05-06 10:38 40.48588 -106.51434 32115 ft 505 kts 98°
2026-05-06 10:39 40.48190 -106.46845 31432 ft 502 kts 98°
2026-05-06 10:39 40.47787 -106.42329 30965 ft 494 kts 98°
2026-05-06 10:39 40.47382 -106.37871 30320 ft 490 kts 99°
2026-05-06 10:39 40.46977 -106.33441 29718 ft 486 kts 99°
2026-05-06 10:40 40.46573 -106.29046 29118 ft 483 kts 99°
2026-05-06 10:40 40.46173 -106.24688 28552 ft 479 kts 99°
2026-05-06 10:40 40.45778 -106.20384 27783 ft 471 kts 99°
2026-05-06 10:40 40.45386 -106.16118 27212 ft 467 kts 99°
2026-05-06 10:41 40.45002 -106.11909 26718 ft 462 kts 98°
2026-05-06 10:41 40.44637 -106.07737 26398 ft 458 kts 98°
2026-05-06 10:41 40.44280 -106.03598 26067 ft 454 kts 98°
2026-05-06 10:41 40.43930 -105.99541 25736 ft 452 kts 98°
2026-05-06 10:42 40.43570 -105.95404 25393 ft 450 kts 98°
2026-05-06 10:42 40.43211 -105.91337 25069 ft 447 kts 99°
2026-05-06 10:42 40.42768 -105.87373 24634 ft 443 kts 102°
2026-05-06 10:42 40.42198 -105.83417 24188 ft 439 kts 104°
2026-05-06 10:43 40.41552 -105.79521 23730 ft 435 kts 105°
2026-05-06 10:43 40.40878 -105.75653 23174 ft 434 kts 105°
2026-05-06 10:43 40.40204 -105.71805 22747 ft 431 kts 105°
2026-05-06 10:44 40.38934 -105.64219 21966 ft 417 kts 103°
2026-05-06 10:44 40.38345 -105.60525 21514 ft 411 kts 103°
2026-05-06 10:44 40.37771 -105.56879 21204 ft 406 kts 103°
2026-05-06 10:44 40.37202 -105.53256 20696 ft 405 kts 103°
2026-05-06 10:45 40.36630 -105.49648 20223 ft 403 kts 103°
2026-05-06 10:45 40.36054 -105.46059 19715 ft 402 kts 102°
2026-05-06 10:45 40.35478 -105.42491 19422 ft 396 kts 102°
2026-05-06 10:45 40.34875 -105.39037 19276 ft 380 kts 108°
2026-05-06 10:46 40.33903 -105.35904 18826 ft 365 kts 121°
2026-05-06 10:46 40.32502 -105.33202 18459 ft 356 kts 131°
2026-05-06 10:46 40.30969 -105.30656 18198 ft 355 kts 131°
2026-05-06 10:46 40.29460 -105.28109 17947 ft 353 kts 130°
2026-05-06 10:47 40.27960 -105.25565 17696 ft 352 kts 130°
2026-05-06 10:47 40.26469 -105.23039 17445 ft 350 kts 130°
2026-05-06 10:47 40.24984 -105.20530 17194 ft 348 kts 130°
2026-05-06 10:47 40.23508 -105.18035 16941 ft 345 kts 130°
2026-05-06 10:48 40.22046 -105.15564 16691 ft 342 kts 130°
2026-05-06 10:48 40.20592 -105.13109 16441 ft 340 kts 130°
2026-05-06 10:48 40.19147 -105.10673 16182 ft 338 kts 130°
2026-05-06 10:48 40.17708 -105.08254 15940 ft 336 kts 130°
2026-05-06 10:49 40.16279 -105.05858 15696 ft 333 kts 130°
2026-05-06 10:49 40.14858 -105.03479 15441 ft 330 kts 130°
2026-05-06 10:49 40.13306 -105.01299 15188 ft 326 kts 137°
2026-05-06 10:49 40.11697 -104.99225 14942 ft 324 kts 137°
2026-05-06 10:50 40.10119 -104.97192 14693 ft 322 kts 137°
2026-05-06 10:50 40.08532 -104.95149 14438 ft 319 kts 137°
2026-05-06 10:50 40.06957 -104.93121 14190 ft 317 kts 137°
2026-05-06 10:50 40.05394 -104.91108 13943 ft 315 kts 137°
2026-05-06 10:51 40.03839 -104.89110 13691 ft 313 kts 137°
2026-05-06 10:51 40.02294 -104.87123 13437 ft 310 kts 137°
2026-05-06 10:51 40.00760 -104.85154 13190 ft 308 kts 137°
2026-05-06 10:51 39.99224 -104.83222 12935 ft 305 kts 141°
2026-05-06 10:52 39.97478 -104.81700 12689 ft 300 kts 155°
2026-05-06 10:52 39.95535 -104.80784 12437 ft 296 kts 168°
2026-05-06 10:52 39.93505 -104.80494 12193 ft 293 kts 181°
2026-05-06 10:52 39.91472 -104.80560 11938 ft 291 kts 181°
2026-05-06 10:53 39.89449 -104.80620 11688 ft 290 kts 181°
2026-05-06 10:53 39.87428 -104.80675 11437 ft 291 kts 181°
2026-05-06 10:53 39.85421 -104.80734 11303 ft 282 kts 181°
2026-05-06 10:53 39.83498 -104.80788 11227 ft 271 kts 181°
2026-05-06 10:54 39.81652 -104.80833 11129 ft 260 kts 181°
2026-05-06 10:54 39.79871 -104.80871 11032 ft 253 kts 180°
2026-05-06 10:54 39.78118 -104.80899 10914 ft 251 kts 180°
2026-05-06 10:54 39.76383 -104.80920 10708 ft 246 kts 180°
2026-05-06 10:55 39.74717 -104.80935 10529 ft 237 kts 180°
2026-05-06 10:55 39.73094 -104.80946 10390 ft 231 kts 179°
2026-05-06 10:55 39.71501 -104.80957 10263 ft 229 kts 179°
2026-05-06 10:55 39.69910 -104.80965 10149 ft 228 kts 179°
2026-05-06 10:56 39.68322 -104.80978 10073 ft 228 kts 179°
2026-05-06 10:56 39.66733 -104.80990 10025 ft 229 kts 179°
2026-05-06 10:56 39.65135 -104.81004 9975 ft 229 kts 179°
2026-05-06 10:56 39.63536 -104.81014 9919 ft 231 kts 179°
2026-05-06 10:57 39.61954 -104.80825 9882 ft 227 kts 160°
2026-05-06 10:57 39.60611 -104.79812 9859 ft 222 kts 132°
2026-05-06 10:57 39.59996 -104.78761 9857 ft 221 kts 115°
2026-05-06 10:57 39.59616 -104.76856 9827 ft 219 kts 87°
2026-05-06 10:58 39.59940 -104.74965 9799 ft 216 kts 61°
2026-05-06 10:58 39.60872 -104.73461 9771 ft 216 kts 37°
2026-05-06 10:58 39.62143 -104.72420 9702 ft 216 kts 31°
2026-05-06 10:58 39.63433 -104.71422 9549 ft 216 kts 31°
2026-05-06 10:59 39.64713 -104.70434 9347 ft 213 kts 31°
2026-05-06 10:59 39.65987 -104.69477 9144 ft 211 kts 25°
2026-05-06 10:59 39.67388 -104.68962 9012 ft 212 kts
2026-05-06 10:59 39.68865 -104.68915 8763 ft 212 kts
2026-05-06 11:00 39.70333 -104.68904 8490 ft 210 kts
2026-05-06 11:00 39.71794 -104.68889 8203 ft 209 kts
2026-05-06 11:00 39.73250 -104.68872 7934 ft 209 kts
2026-05-06 11:00 39.74702 -104.68855 7658 ft 208 kts
2026-05-06 11:01 39.76152 -104.68839 7381 ft 207 kts
2026-05-06 11:01 39.77593 -104.68822 7105 ft 207 kts
2026-05-06 11:01 39.79014 -104.68804 6869 ft 201 kts
2026-05-06 11:01 39.80395 -104.68789 6578 ft 196 kts
2026-05-06 11:02 39.81733 -104.68774 6307 ft 188 kts
2026-05-06 11:02 39.82999 -104.68759 6063 ft 175 kts
2026-05-06 11:02 39.84179 -104.68746 5815 ft 164 kts
2026-05-06 11:02 39.85270 -104.68738 5612 ft 150 kts 360°
2026-05-06 11:03 39.86305 -104.68727 5419 ft 146 kts
2026-05-06 11:03 39.87307 -104.68706 5360 ft 143 kts
2026-05-06 11:03 39.88078 -104.68698 5364 ft 67 kts 360°
2026-05-06 11:03 39.88321 -104.68692 5357 ft 25 kts
2026-05-06 11:04 39.88483 -104.68653 5355 ft 24 kts 10°
2026-05-06 11:04 39.88558 -104.68603 5356 ft 6 kts 36°
2026-05-06 11:04 39.88571 -104.68591 5357 ft 0 kts 36°
2026-05-06 11:05 39.88584 -104.68579 5357 ft 5 kts 36°
2026-05-06 11:05 39.88589 -104.68515 5358 ft 11 kts 123°
2026-05-06 11:05 39.88496 -104.68481 5357 ft 18 kts 180°
2026-05-06 11:06 39.88349 -104.68481 5358 ft 22 kts 181°
2026-05-06 11:06 39.88193 -104.68488 5361 ft 23 kts 181°
2026-05-06 11:06 39.88030 -104.68487 5362 ft 24 kts 180°
2026-05-06 11:06 39.87864 -104.68486 5363 ft 24 kts 179°
2026-05-06 11:07 39.87694 -104.68491 5364 ft 25 kts 183°
2026-05-06 11:07 39.87514 -104.68502 5363 ft 26 kts 182°
2026-05-06 11:07 39.87323 -104.68496 5359 ft 28 kts 183°
2026-05-06 11:07 39.87166 -104.68481 5360 ft 22 kts 178°
2026-05-06 11:08 39.87008 -104.68493 5359 ft 23 kts 185°
2026-05-06 11:08 39.86850 -104.68501 5361 ft 22 kts 181°
2026-05-06 11:08 39.86707 -104.68501 5364 ft 20 kts 181°
2026-05-06 11:08 39.86570 -104.68504 5366 ft 20 kts 180°
2026-05-06 11:09 39.86434 -104.68506 5368 ft 19 kts 181°
2026-05-06 11:09 39.86302 -104.68509 5366 ft 19 kts 181°
2026-05-06 11:09 39.86161 -104.68511 5364 ft 21 kts 180°
2026-05-06 11:09 39.86013 -104.68513 5365 ft 21 kts 181°
2026-05-06 11:10 39.85871 -104.68512 5367 ft 20 kts 178°
2026-05-06 11:10 39.85737 -104.68511 5367 ft 19 kts 180°
2026-05-06 11:10 39.85613 -104.68493 5369 ft 17 kts 144°
2026-05-06 11:10 39.85602 -104.68364 5375 ft 12 kts 94°
2026-05-06 11:11 39.85599 -104.68294 5383 ft 5 kts 91°
2026-05-06 11:11 39.85598 -104.68247 5383 ft 7 kts 91°
2026-05-06 11:11 39.85596 -104.68144 5386 ft 15 kts 92°
2026-05-06 11:11 39.85594 -104.67997 5386 ft 17 kts 89°
2026-05-06 11:12 39.85594 -104.67837 5386 ft 17 kts 101°
2026-05-06 11:12 39.85524 -104.67713 5386 ft 18 kts 106°
2026-05-06 11:12 39.85490 -104.67632 5386 ft 8 kts 150°
2026-05-06 11:12 39.85467 -104.67617 5386 ft 1 kts 156°
2026-05-06 11:13 39.85460 -104.67613 5386 ft 1 kts 155°
2026-05-06 11:13 39.85455 -104.67611 5386 ft 0 kts 156°
2026-05-06 11:13 39.85453 -104.67609 5386 ft 0 kts 156°
2026-05-06 11:13 39.85451 -104.67608 5386 ft 0 kts 156°
2026-05-06 11:14 39.85449 -104.67607 5386 ft 0 kts 156°